Location: Rumah Geringgi
(3.1667°N, 113.1667°E)
Time: 19:43:57
(UTC+00:00)

Cosmos 1953 - Pass Details

Date: 03 August 2024
Orbit: 504 x 523 km, 82.5° (Epoch: 19 September)

Event Time Altitude Azimuth Distance (km) Brightness Sun altitude
Rises 10:18:53 0° 288° (WNW) 2,660 9.1 4.4°
Enters shadow 10:44:30 -41° 175° (S) 9,135 8.3 -1.7°
Exits shadow 11:09:52 -73° 80° (E) 12,703 9.1 -7.7°
